Regional Weather Roundup
Issued by NWS

Home | Current Version | Previous Version | Text Only | Print | Product List | Glossary On
Versions: 1 2 3 4 5 6 7 8 9 10 11 12 13 14 15 16 17 18 19 20 21 22 23 24 25 26 27 28 29 30 31 32 33 34 35 36 37 38 39 40 41 42 43 44 45 46 47 48 49 50
000
ASUS43 KDTX 281410
RWRMI
MICHIGAN HOURLY REGIONAL WEATHER ROUNDUP
NATIONAL WEATHER SERVICE DETROIT/PONTIAC MI
1000 AM EDT SAT MAY 28 2016

NOTE: "FAIR" INDICATES FEW OR NO CLOUDS BELOW 12,000 FEET WITH NO
SIGNIFICANT WEATHER AND/OR OBSTRUCTION TO VISIBILITY.

MIZ047>049-052>055-059>063-066>070-074>076-081>083-281500-
SOUTHEAST LOWER MICHIGAN

CITY           SKY/WX    TMP DP  RH WIND       PRES   REMARKS
ADRIAN         MOSUNNY   80  65  59 SW13      30.05R
ALMA           CLOUDY    71  65  82 S13       29.99R
ANN ARBOR      SUNNY     77  66  68 S10       30.04R
BAD AXE        SUNNY     81  66  60 SW9       30.03S
CARO           PTSUNNY   81  67  61 S13       30.02R
DETROIT CITY   PTSUNNY   79  65  62 SW8       30.05R
DETROIT        PTSUNNY   79  66  64 S9        30.05R
FLINT          PTSUNNY   81  65  58 SW8       30.03R
GROSSE ILE     PTSUNNY   72  66  83 S6        30.05R
HILLSDALE      LGT RAIN  71  64  78 SW6       30.05R
HOWELL         MOSUNNY   79  66  63 SW6       30.03S

CITY           SKY/WX    TMP DP  RH WIND       PRES   REMARKS
JACKSON        CLOUDY    75  65  70 S9        30.04R
LAMBERTVILLE   SUNNY     81  66  59 SW6       30.05R
LANSING        CLOUDY    74  66  76 S10       30.01R
LAPEER         FAIR      83  62  48 SW13      30.04R
MASON          MOSUNNY   76  65  70 S10       30.03R
MONROE         SUNNY     80  68  66 SW9G16    30.04S
MT. CLEMENS    PTSUNNY   76  66  72 SE7       30.05R
PONTIAC        PTSUNNY   79  64  60 S12       30.04R
PORT HOPE        N/A     81  66  60 VRB7      30.01R
PORT HURON     SUNNY     77  66  69 S6        30.05R
TRI CITIES     CLOUDY    74  67  78 S10       30.01R
MIDLAND        PTSUNNY   74  66  76 S6        29.99S
TROY           PTSUNNY   81  66  60 S7        30.06S
SAGINAW HB     PTSUNNY   77  63  61 S10       30.01R
$$
MIZ043>046-050>051-056>058-064>065-071>073-077>080-281500-
SOUTHWEST LOWER MICHIGAN

CITY           SKY/WX    TMP DP  RH WIND       PRES   REMARKS
BENTON HARBOR  CLOUDY    75  64  68 S12G21    29.94R
BIG RAPIDS     CLOUDY    70  66  86 S6        29.95R
COLDWATER      CLOUDY    74  65  74 S8        30.02R
FREMONT        FAIR      72  68  88 S10       29.94R
HOLLAND        CLOUDY    74  65  73 S10       29.95R
GRAND RAPIDS   CLOUDY    74  65  73 S12       29.97R
IONIA          FAIR      73  64  73 S10       29.98S
KALAMAZOO      CLOUDY    76  64  66 S14G20    29.99R
LUDINGTON      CLOUDY    73  66  78 S12G20    29.90R
MARSHALL       CLOUDY    76  65  70 S8        30.01R
MOUNT PLEASANT CLOUDY    73  65  76 S6        29.97S
MUSKEGON       CLOUDY    74  62  66 S18G29    29.93R
SOUTH HAVEN    CLOUDY    75  64  68 S8        29.95R
$$
MIZ016>042-281500-
NORTHERN LOWER MICHIGAN

CITY           SKY/WX    TMP DP  RH WIND       PRES   REMARKS
ALPENA         CLOUDY    69  63  81 SE5       29.98R
BEAVER ISLAND  CLOUDY    68  65  88 SE6       29.90S
BELLAIRE       CLOUDY    73  65  75 CALM      29.92S
CADILLAC       CLOUDY    72  64  76 S10       29.95R
CHARLEVOIX     CLOUDY    72  66  82 SE6       29.94S
FRANKFORT      CLOUDY    73  66  77 S8        29.89R
GAYLORD        CLOUDY    72  65  78 S13       29.96S
GRAYLING       MOSUNNY   73  67  81 SE6       29.97S
HARBOR SPRINGS CLOUDY    73  66  80 S5        29.92S
HOUGHTON LAKE  PTSUNNY   73  64  73 S9        29.98R
MANISTEE       CLOUDY    73  64  73 S9G17     29.91R
OSCODA         MOSUNNY   80  63  55 S8        29.99R
PELLSTON       CLOUDY    73  67  81 SE7       29.92F
ROGERS CITY    CLOUDY    69  65  85 SE3       29.97S
TRAVERSE CITY  CLOUDY    73  65  75 SE6       29.89S
$$
MIZ007>008-015-281500-
EASTERN UPPER MICHIGAN

CITY           SKY/WX    TMP DP  RH WIND       PRES   REMARKS
KINROSS          N/A     66  64  94 SE17      29.93S
MACKINAC ISLAN CLOUDY    63  63 100 SE5       29.92S
NEWBERRY       CLOUDY    66  65  97 S9        29.89S
S. S. MARIE    CLOUDY    64  61  90 SE10      29.93S
MUNISING         N/A     64  62  93 S6        29.84R
$$
MIZ004>006-011>014-085-281500-
CENTRAL UPPER MICHIGAN

CITY           SKY/WX    TMP DP  RH WIND       PRES   REMARKS
MANISTIQUE     CLOUDY    56  55  97 SW8       29.88S FOG
ESCANABA         N/A    N/A N/A N/A SE6       29.84F
MENOMINEE      CLOUDY    64  63  94 S8        29.84R
SAWYER-GWINN   FOG       61  61 100 S9        29.84S VSB 1/4
$$
MIZ001>003-009>011-084-281500-
WESTERN UPPER MICHIGAN

CITY           SKY/WX    TMP DP  RH WIND       PRES   REMARKS
IRON MOUNTAIN  CLOUDY    65  63  93 SE6       29.81S FOG
HOUGHTON       CLOUDY    59  58  96 E3        29.79S
COPPER HARBOR    N/A     60  59  96 SW8       29.78S
IRONWOOD       CLOUDY    61  61 100 CALM      29.76R
$$

ABBREVIATIONS USED IN REMARKS
   TC - TEMPERATURE IN CELSIUS
  WCI - WIND CHILL INDEX
   HX - HEAT INDEX
  VSB - VISIBILITY





USA.gov is the U.S. government's official web portal to all federal, state and local government web resources and services.